Regional Weather Roundup
Issued by NWS San Diego, CA

Home | Current Version | Previous Version | Text Only | Print | Product List | Glossary On
Versions: 1 2 3 4 5 6 7 8 9 10 11 12 13 14 15 16 17 18 19 20 21 22 23 24 25 26 27 28 29 30 31 32 33 34 35 36 37 38 39 40 41 42 43 44 45 46 47 48 49 50
000
ASUS46 KSGX 050711
RWRSGX

SAN DIEGO HOURLY WEATHER ROUNDUP
NATIONAL WEATHER SERVICE SAN DIEGO CA
1200 AM PDT TUE MAY 05 2015

NOTE: "FAIR" INDICATES FEW OR NO CLOUDS BELOW 12,000 FEET WITH NO
SIGNIFICANT WEATHER AND/OR OBSTRUCTIONS TO VISIBILITY.

CAZ042-043-060-061-PZZ750-775-050800-

GREATER SAN DIEGO AREA

CITY           SKY/WX    TMP DP  RH WIND       PRES   REMARKS
LINDBERGH FLD  CLOUDY    62  49  62 NW3       30.03S
POINT LOMA       N/A     58  48  70 W8          N/A
NATIONAL CITY    N/A     62  53  73 W2        30.02S
CHULA VISTA      N/A     61  53  74 CALM      29.95R
IMPERIAL BEACH CLOUDY    62  52  69 W8        30.03R
BROWN FIELD    CLOUDY    58  51  78 W5        30.02R
MIRAMAR MCAS   MOCLDY    59  48  67 W3        30.01S
MONTGOMERY FLD CLOUDY    60  50  69 SW6       30.02R

$$

NORTH SAN DIEGO COUNTY

CITY           SKY/WX    TMP DP  RH WIND       PRES   REMARKS
CAMP PENDLETON MOCLDY    60  50  69 CALM      30.01S
OCEANSIDE AP   CLOUDY    60  51  72 NW5       30.00S
OCEANSIDE HBR    N/A     60  55  82 NW3       30.04R
VISTA            N/A     58  52  80 CALM      29.99S
CARLSBAD       CLOUDY    60  52  74 CALM      30.00S
DEL MAR          N/A     60  53  77 CALM      30.03S
LA JOLLA SCRIP   N/A    N/A N/A N/A CALM      29.99S
FALLBROOK        N/A     58  55  92 SW2       30.00S
ESCONDIDO        N/A     59  53  79 SW3       30.02R
SAN MARCOS       N/A     58  53  81 CALM      29.99S
POWAY            N/A     59  52  77 SW2       30.03R

$$

EAST SAN DIEGO COUNTY

CITY           SKY/WX    TMP DP  RH WIND       PRES   REMARKS
RAMONA         CLOUDY    56  49  77 SW5       30.01S
SANTEE LAKES     N/A     59  51  75 CALM      30.01S
JAMUL            N/A     56  51  81 CALM      30.01R
DESCANSO N       N/A     49  47  93 CALM      29.87S
MT. LAGUNA OBS   N/A     48  28  45 N7        29.63
CAMPO            N/A     52  48  86 SW8       29.97S

$$

ORANGE COUNTY AND THE LOS ANGELES BASIN

CITY           SKY/WX    TMP DP  RH WIND       PRES   REMARKS
JOHN WAYNE AP  CLEAR     58  49  72 S5        30.01R
LAKE FOREST FR   N/A     53  47  79 CALM      29.90S
SANTA ANA        N/A     58  50  73 CALM      29.96R
HUNTINGTON BCH   N/A     57  52  85 CALM      30.02S
LOS ALAMITOS   MOCLDY    57  52  82 S2        30.00S
FULLERTON      CLOUDY    59  49  69 CALM      29.99S
LONG BEACH     CLOUDY    59  51  75 CALM      30.00S
L.A. AP        PTCLDY    56  51  84 W7        30.00S
L.A. DOWNTOWN  CLEAR     57  50  77 CALM      30.00R

$$

THE INLAND EMPIRE

CITY           SKY/WX    TMP DP  RH WIND       PRES   REMARKS
CORONA         CLEAR     54  49  83 CALM      30.01R
CHINO          CLEAR     56  49  77 W7        30.01R
ONTARIO        PTCLDY    56  49  77 W7        30.00R
RIVERSIDE AP   CLEAR     56  49  77 W5        30.00R
RIV CYN CREST    N/A     56  56  97 W1          N/A
MORENO VALLEY    N/A     54  52  93 CALM      29.95S
MARCH ARB      CLEAR     53  48  82 SE3       29.99S
HORSETHIEF CYN   N/A     53  44  72 CALM      29.96S
PERRIS           N/A     53  51  91 S3          N/A
MENIFEE          N/A     55  51  88 CALM      30.04S
HEMET EAST       N/A     53  47  81 CALM      29.97S
FRENCH VALLEY  NOT AVBL
TEMECULA         N/A     57  53  88 SW3       29.96S

$$

SAN BERNARDINO AND RIVERSIDE COUNTY MOUNTAINS

CITY           SKY/WX    TMP DP  RH WIND       PRES   REMARKS
BIG BEAR AP    CLEAR     39  27  60 W7        30.08S WCI  34
PINE COVE        N/A     47  28  48 NW7       29.90F

$$

SOUTHERN DESERT INCLUDING THE COACHELLA VALLEY

CITY           SKY/WX    TMP DP  RH WIND       PRES   REMARKS
PALM SPRINGS   CLEAR     71  43  36 SW6       29.83R
THOUSAND PALMS   N/A     69  46  43 NW16      29.82R
PALM DESERT      N/A     69  49  48 CALM        N/A
THERMAL        CLEAR     73  44  35 N6        29.80R
BLYTHE         CLOUDY    65  58  78 SE6       29.84R
IMPERIAL AP    CLEAR     71  45  39 SW7       29.84R
EL CENTRO NAS  CLEAR     70  45  40 SW14      29.86R
YUMA AZ        PTCLDY    70  56  61 NE14      29.87S

$$

UPPER DESERT

CITY           SKY/WX    TMP DP  RH WIND       PRES   REMARKS
VICTORVILLE AP CLEAR     55  43  62 CALM      29.92F
HESPERIA         N/A     54  42  63 W7        30.00R
APPLE VALLEY     N/A     56  42  58 S2        30.02R
PALMDALE       CLEAR     60  32  34 SW16      29.93R
LANCASTER      CLEAR     58  38  47 SW17      29.92R
DAGGETT        PTCLDY    69  30  23 SW10      29.86S
29 PALMS N     MOCLDY    69  26  20 W8        29.94R
NEEDLES        MOCLDY    70  51  51 N8        29.85S

$$

REGIONAL REPORTS

CITY           SKY/WX    TMP DP  RH WIND       PRES   REMARKS
SANTA BARBARA  CLEAR     57  46  66 E7        29.96S
SANDBERG       CLEAR     51  40  65 S5        30.01S
MT. WILSON       N/A     46  25  42 MISG        N/A
LAS VEGAS NV   LGT RAIN  69  47  45 SW20G25   29.84R
PHOENIX AZ     CLOUDY    68  56  65 E6        29.87R
TIJUANA        CLOUDY    59  48  67 W7        30.05R
ENSENADA NW      N/A     60  32  35 N10       30.00R

$$

OFFSHORE ISLANDS

CITY           SKY/WX    TMP DP  RH WIND       PRES   REMARKS
CATALINA ARPT  CLOUDY    51  49  92 W7        30.01S
SAN NICOLAS IS CLOUDY   N/A N/A N/A NW13      30.00S

$$

MARINE AND OFFSHORE BUOY REPORTS

STATION/POSITION SKY/WX   TEMP    WIND        PRES    SWELL
                          AIR SEA DIR/SP/G            HT/PER/DIR
                          (F)     (DEG/KT/KT) (MB)    (FT/S/D)
TANNER BANKS               59 61  320/ 12/ 16 1016.4R   7/140/17
S CLEMENTE BASIN           60 64  300/  8/ 12 1016.3S   7/180/17
SAN NICOLAS IS.               60                N/A     7/170/18
SO. S. ROSA ISLA           58 61  330/ 19/ 23 1014.5F   7/17
W. S. BARBARA CH           56 57  340/ 17/ 19 1014.7F   5/180/19
S. MONICA BASIN            58 62  270/  6/ 10 1015.4R   5/180/17
S PEDRO CHANNEL               59                N/A     3/180/18
DANA POINT                    60                N/A     5/190/18
OCEANSIDE OFFSHR              63                N/A     5/190/18
TORREY PINES OTR              64                N/A     5/200/18
LA JOLLA 1                 61 66  250/  7/  8 1016.2R
MISSION BAY BUOY              65                N/A     5/200/18
SAN DIEGO BAY                 66              1016.7R
POINT LOMA SOUTH              65                N/A     5/190/18

$$



USA.gov is the U.S. government's official web portal to all federal, state and local government web resources and services.